Temp_Advection
nan nan nan nan nan nan nan nan nan nan nan nan nan nan nan nan nan nan nan nan nan nan nan nan nan nan nan nan nan nan nan nan nan nan nan nan nan nan nan nan nan nan nan nan
nan -0 -0 -0 -0 0 0 0 -0 -0 -0 -0 0 -0 -0 -0 0 -0 -0 -0 -0 -0 0 -0 -0 -0 -0 0 0 0 -0 -0 0 -0 0 0 0 0 0 -0 -0 -0 0 nan
nan -0 -0 -0 -0 -0 0 0 -0 0 -0 -0 -0 -0 -0 -0 -0 -0 -0 0 0 -0 -0 0 -0 0 -0 -0 -0 0 -0 0 -0 0 0 -0 -0 -0 0 -0 -0 -0 -1 nan
nan -0 -0 -0 -1 -0 -0 -0 -0 -0 -0 -0 0 0 0 -0 -0 0 -0 -0 -0 0 0 0 -0 -0 -0 -0 0 -0 0 -0 0 -0 0 0 -0 0 -0 -0 -1 -1 0 nan
nan -1 -1 -1 -1 -1 -0 -0 0 0 -0 -0 -0 -0 -0 -0 0 -0 -0 0 -0 0 0 -0 0 -0 -0 0 -0 0 -0 -0 0 -0 0 -0 -0 0 -0 -1 -0 -0 -0 nan
nan -1 -1 -1 -1 -1 -0 -0 -0 -0 0 -0 0 -0 -0 0 0 -0 0 0 0 -0 -0 -0 0 0 0 0 -0 -0 0 0 0 -0 -0 -0 0 -1 0 -0 0 0 0 nan
nan -1 -1 -1 -1 -1 -0 -0 -0 0 0 0 -0 -0 0 0 0 0 0 -0 -0 -0 -0 -0 0 0 1 1 0 0 -0 0 -0 -0 -0 -0 -0 0 0 -0 -0 0 0 nan
nan -2 -2 -1 -0 -0 -0 -0 -0 0 0 -0 -0 0 0 0 0 0 0 0 0 0 0 -0 -0 -0 0 0 -0 0 -0 -0 -0 0 0 -1 -1 -0 -0 -0 -0 -0 -0 nan
nan -1 -1 -1 -0 -0 -0 -0 -0 0 0 -0 -0 0 0 0 0 -0 0 0 0 0 0 0 0 -0 -0 0 -0 -0 0 0 0 -0 -0 -0 -0 -0 0 -0 0 -0 -0 nan
nan -0 -0 -1 -0 -0 -0 -0 -0 0 -0 -0 1 0 0 0 0 0 -0 0 0 1 -0 0 0 0 0 0 0 -0 -0 -0 0 -0 0 -0 -0 -0 -0 0 0 -0 -0 nan
nan -0 -0 -0 -0 -0 -0 -0 -0 0 -0 -1 -0 -0 0 0 0 -0 0 -0 0 -0 -0 0 0 0 -0 0 0 -0 -0 -0 -0 -0 -0 0 -0 -0 0 -0 0 0 -0 nan
nan -0 -0 -0 -0 -0 -0 -0 -0 -0 -0 -0 -0 -0 -0 0 -0 -0 0 0 -0 -0 -0 0 -0 -0 -0 0 0 0 -0 -0 -0 0 0 -0 -0 -0 -0 0 0 -0 -0 nan
nan -0 -0 -0 -0 -0 -0 -0 -0 -0 -0 -1 -0 -0 -0 -0 0 1 0 -0 -0 0 0 -0 -0 0 -0 0 -0 -0 -0 0 -0 -0 0 -0 0 0 -0 -0 -0 -0 -0 nan
nan -0 -0 -0 -0 -0 -0 -0 -0 -0 -0 -0 -0 -0 0 -0 -0 -0 -0 0 0 0 0 0 0 0 0 0 -0 0 -0 0 0 0 -0 -0 -0 0 -0 0 0 0 -0 nan
nan -0 -0 -0 -0 -0 -0 -0 0 -0 -0 -0 -1 -1 -0 -0 -0 0 0 0 0 0 0 0 0 0 0 0 0 0 0 0 -0 0 -0 -0 -0 -0 0 -0 0 0 0 nan
nan -0 -0 -0 -0 -0 -0 0 -0 -0 0 -0 -0 -0 -0 -0 -0 0 0 0 0 0 0 0 -0 -0 0 0 0 0 0 0 -0 0 0 0 0 0 0 0 0 0 0 nan
nan -0 -0 -0 -0 0 -0 -0 0 -0 -0 0 -0 -0 -0 -0 -0 0 0 0 0 0 0 0 0 0 0 0 0 -0 0 -0 -0 -0 -0 0 0 0 -0 -0 -0 -0 -0 nan
nan -0 -1 -1 -0 -0 0 0 0 -0 0 0 -0 -0 -0 -0 -0 0 -0 0 -0 0 -0 -0 -0 -0 0 0 -1 -0 -0 -0 0 0 0 0 0 -0 -0 -0 -0 -0 -0 nan
nan 0 -0 -0 0 0 0 0 -0 0 0 -0 0 0 -0 -0 -0 -0 -0 -0 -0 -0 -0 -0 -0 -0 -0 -0 -0 -0 0 0 0 -0 -0 0 -0 -0 -0 -0 -0 -0 -1 nan
nan -0 -0 -0 -0 -0 -0 0 0 0 0 0 0 -0 -0 -0 -0 -0 -0 -0 -0 -0 -0 -0 -0 -0 -0 -0 0 0 0 0 -0 -0 -0 -0 -0 -0 -0 -0 -0 -0 -0 nan
nan -0 -0 -0 -0 -0 -0 -0 -0 -0 0 -0 -0 -0 -0 -0 -0 -0 -0 0 -0 -0 -0 -0 -0 -0 -0 0 1 0 -0 -0 -0 -0 -0 -0 -0 -0 -0 -0 -0 -0 -0 nan
nan -0 -0 -0 -0 -0 -1 -0 -1 -0 -0 0 -0 -0 -0 -0 -0 -0 -0 -0 -0 -0 -1 -0 0 0 0 0 -0 -0 -0 -0 -0 -0 -0 -0 -0 -0 -0 -0 -0 -0 -0 nan
nan -0 -0 -0 -0 -1 0 0 -0 0 -0 0 -0 -0 -0 -0 -1 -0 -0 -0 -0 -0 -0 0 0 -0 0 0 -0 -0 -0 -0 -0 -0 -0 -0 -0 -0 -0 -0 -0 -0 -0 nan
nan -0 -0 -0 -0 -0 -0 -0 -0 0 -0 -0 -0 -0 -0 -1 -0 -0 -0 -0 0 0 0 0 -0 -0 -0 -0 -0 -0 -0 -1 -0 -1 -1 -1 -1 -1 -1 -1 -0 -1 -1 nan
nan -0 0 -0 -0 -0 0 0 0 0 -0 -0 -0 -0 -1 -1 -0 -0 -0 -0 0 0 -0 -0 -0 -0 -0 -0 -1 -1 -0 -1 -1 -1 -1 -1 -1 -1 -1 -0 -0 -1 -1 nan
nan -0 0 -0 -0 0 0 -0 -0 -0 -0 -0 -1 -1 -0 -0 0 -0 0 0 -0 -0 -0 -0 -0 -0 -1 -0 -0 -0 -1 -0 -0 -0 -0 -0 -0 -0 -1 -1 -0 -0 -0 nan
nan nan nan nan nan nan nan nan nan nan nan nan nan nan nan nan nan nan nan nan nan nan nan nan nan nan nan nan nan nan nan nan nan nan nan nan nan nan nan nan nan nan nan nan
Wind_Speed
12 14 16 17 16 14 2 0 2 6 2 2 3 3 3 1 1 0 1 1 1 1 2 3 1 1 2 3 4 3 2 4 2 1 1 3 2 4 5 4 5 1 4 7
12 13 15 15 15 16 7 1 1 4 2 3 2 1 1 1 3 2 2 1 2 3 4 4 2 2 2 3 1 2 2 2 3 4 2 3 3 4 3 4 3 7 6 6
12 13 13 15 14 12 9 4 2 2 2 4 5 4 2 2 1 1 1 1 2 3 2 1 3 2 3 3 2 4 3 2 5 6 5 4 4 5 6 6 3 4 7 7
14 14 15 14 14 12 7 5 1 1 2 3 2 2 2 3 2 2 2 2 3 2 1 0 3 3 3 1 3 2 4 6 5 7 7 5 6 7 10 10 11 10 12 10
14 15 15 15 13 10 4 2 1 1 1 2 1 2 4 4 2 4 2 3 2 4 4 6 3 4 3 5 1 5 1 3 2 5 5 9 7 11 14 18 18 17 18 16
16 16 17 16 14 12 5 4 2 0 1 1 2 3 4 5 3 4 3 5 2 2 6 9 6 8 5 5 8 7 5 4 2 5 4 5 6 18 16 5 4 8 10 7
23 24 23 20 15 11 6 5 3 2 3 2 4 2 3 4 4 2 2 7 5 2 1 5 8 10 10 9 11 11 6 5 3 3 3 4 5 2 5 4 1 5 5 5
20 21 19 16 13 10 7 6 3 2 3 4 4 7 6 4 6 4 6 9 8 5 1 2 4 4 4 4 2 8 6 5 2 3 4 7 14 1 5 6 2 4 6 5
11 12 11 10 10 10 9 8 7 5 2 6 9 4 5 4 3 3 5 6 8 7 3 3 6 5 5 4 0 5 5 1 6 4 4 6 3 2 3 4 3 2 7 4
10 10 10 9 8 8 8 9 10 7 5 7 8 5 4 6 3 2 2 4 5 9 3 4 5 5 5 5 6 6 4 2 12 11 7 6 2 6 1 2 3 5 5 3
11 11 11 11 9 9 7 9 10 11 7 15 12 11 9 6 6 4 4 2 2 2 3 4 4 4 5 2 5 7 8 8 4 5 5 9 7 0 4 3 6 4 2 2
12 12 12 12 12 11 8 6 10 12 12 8 10 14 15 14 15 9 7 2 3 6 2 2 0 3 1 3 3 1 3 5 4 7 4 3 9 8 5 3 3 0 3 3
12 12 11 11 11 11 10 10 10 10 9 18 22 22 24 26 26 22 7 7 10 6 6 2 2 5 2 3 5 3 2 2 2 3 2 3 4 3 2 2 2 2 0 4
13 13 12 12 12 11 12 12 10 7 4 4 6 7 10 9 11 12 17 24 14 12 11 7 3 3 7 3 2 3 3 2 5 1 3 5 4 4 2 1 3 4 3 3
13 13 13 12 12 12 12 13 4 2 3 3 11 18 10 9 11 16 12 14 20 10 5 3 3 3 3 2 1 3 5 2 5 5 4 2 6 6 7 7 5 3 4 7
13 13 13 13 12 14 13 3 5 7 4 3 3 5 5 7 4 4 5 10 9 6 4 2 3 3 5 2 3 1 3 4 2 4 5 4 4 7 6 2 3 5 8 12
18 18 17 15 13 13 11 6 5 11 9 2 5 5 3 9 1 1 2 5 4 4 3 4 3 4 5 2 2 5 10 12 10 6 8 6 5 2 2 5 8 12 15 17
16 18 18 18 16 15 9 7 5 2 2 2 2 3 4 7 4 2 3 2 0 1 2 2 2 2 3 0 7 10 10 10 8 5 4 3 3 5 8 12 15 18 21 24
15 18 15 11 5 2 3 2 6 7 3 2 3 1 2 5 4 2 1 1 0 1 1 2 4 2 4 4 10 14 11 8 8 7 7 7 9 11 14 18 20 22 25 28
14 11 4 1 1 3 7 3 1 1 5 5 2 4 1 6 5 3 3 2 1 1 1 6 1 2 8 15 15 12 7 8 10 12 14 16 17 18 20 22 23 24 26 29
7 6 3 5 9 4 1 1 1 3 3 2 2 4 2 5 1 1 3 1 1 2 2 1 2 2 6 14 14 13 13 12 13 13 13 13 15 17 21 25 27 28 29 29
8 8 8 5 3 1 3 1 4 3 2 2 3 5 3 3 3 2 5 2 3 1 8 3 2 1 9 8 9 10 15 16 17 17 18 18 20 22 26 28 30 32 31 29
6 2 2 4 3 6 4 2 3 2 3 4 5 3 4 5 9 4 3 5 2 4 4 2 1 6 7 12 13 12 20 20 20 21 22 23 25 27 29 31 29 29 29 30
2 3 4 3 4 0 2 2 2 2 4 5 6 3 4 3 3 1 2 1 2 3 3 2 2 11 12 12 14 19 21 21 21 22 24 27 28 28 28 29 30 30 32 32
2 2 1 0 3 3 3 5 2 2 5 7 2 4 3 4 3 2 3 5 3 2 2 1 9 13 13 18 20 21 22 24 27 27 27 30 30 32 33 30 29 27 26 26
1 2 2 1 2 3 4 6 7 5 6 4 4 3 4 3 2 4 1 4 1 2 3 11 14 19 23 23 23 23 25 25 27 28 27 28 28 28 29 28 25 24 23 24
2 1 1 2 3 3 4 5 6 6 6 1 3 3 4 1 3 3 2 3 3 9 12 17 21 23 22 21 24 25 25 27 26 25 25 25 25 24 25 24 26 23 22 22
Wind_Direction
12 8 5 5 6 11 352 253 44 357 3 13 47 121 180 184 239 313 246 166 145 144 151 137 132 142 185 185 178 162 197 141 161 120 145 174 173 177 156 124 239 190 147 273
9 10 8 8 6 2 4 326 71 14 48 89 29 261 152 175 160 207 184 159 348 354 9 32 62 123 129 142 132 141 184 7 18 342 17 14 234 199 165 99 84 203 143 256
350 359 4 6 5 3 353 331 15 59 38 66 129 151 173 176 203 222 223 198 171 157 155 304 196 264 329 1 69 81 74 106 190 201 214 130 208 206 186 154 135 186 227 277
346 348 356 359 0 358 350 10 32 42 299 2 49 72 141 159 199 222 216 185 203 162 105 14 186 153 171 181 180 124 144 211 193 239 227 196 213 207 188 200 213 194 249 198
344 345 345 352 359 356 344 35 32 16 358 309 100 15 216 204 239 171 205 215 146 187 199 197 219 159 208 212 104 172 26 272 169 284 227 216 243 243 232 218 231 241 261 278
341 347 344 341 348 3 29 28 24 126 302 39 90 226 188 209 172 213 232 197 133 235 242 246 257 223 255 210 163 187 159 161 108 256 340 318 277 236 229 183 187 213 233 227
323 322 324 323 327 337 351 354 326 248 250 183 205 207 225 219 225 232 209 200 160 227 224 314 290 273 262 234 223 175 149 139 167 266 353 257 265 262 191 121 17 192 122 112
316 315 317 311 304 305 303 298 292 269 256 232 277 226 215 233 236 231 230 227 227 213 139 39 334 326 337 259 163 191 169 142 232 229 221 301 306 35 137 159 86 18 95 48
325 324 326 322 297 284 279 271 263 248 193 238 238 195 215 210 217 314 232 226 210 180 120 134 206 223 223 261 194 14 138 186 205 145 217 244 241 335 337 133 188 92 99 67
337 341 335 322 310 303 286 260 252 244 250 253 226 204 211 192 187 197 241 181 180 190 150 189 192 233 199 228 196 170 130 209 216 227 245 277 264 299 335 149 182 109 80 42
322 324 324 327 326 322 302 264 252 246 252 265 269 258 233 216 198 168 164 105 206 101 184 189 213 207 227 253 181 175 169 171 193 197 224 265 358 3 191 108 126 141 5 342
321 322 324 323 320 317 319 295 260 263 263 259 271 262 251 256 273 257 236 253 158 210 167 247 331 239 247 196 244 10 227 201 184 188 215 88 49 87 101 103 142 340 337 350
323 323 325 328 329 329 326 314 302 302 281 282 265 259 266 268 261 249 229 228 221 195 226 166 238 238 153 202 225 229 242 163 120 13 162 130 136 123 95 43 15 327 342 97
314 317 319 323 326 328 326 322 311 295 283 274 276 260 258 258 248 238 236 238 246 247 235 212 202 216 195 226 284 209 230 191 182 252 85 114 125 110 83 114 139 118 76 44
311 312 312 314 318 320 322 317 301 250 248 293 295 293 289 288 256 247 246 239 235 213 192 212 216 212 179 214 215 216 205 246 260 271 86 55 113 104 119 118 105 58 348 326
306 307 309 309 314 321 330 303 246 243 243 297 293 308 318 325 284 256 244 241 235 222 207 209 239 214 215 225 242 163 106 95 64 126 101 105 88 111 108 78 341 322 323 322
293 292 290 294 301 306 298 274 275 296 309 257 294 306 318 344 31 97 185 202 203 228 273 242 222 204 187 277 231 94 91 88 72 65 101 84 133 140 349 338 333 322 320 321
304 305 296 281 284 295 294 267 253 281 220 224 273 276 328 9 5 50 31 96 57 239 290 289 268 318 212 155 58 79 75 77 63 56 61 64 10 330 326 328 329 323 319 320
315 314 308 295 268 233 202 241 277 257 255 241 219 254 299 6 21 11 55 56 46 328 301 331 351 6 36 19 80 72 61 38 5 350 336 332 339 335 328 324 323 323 318 318
323 328 353 35 355 288 316 280 277 187 188 225 241 336 316 350 351 27 6 21 17 358 25 320 63 80 37 44 55 52 39 22 13 4 353 338 329 329 324 322 320 318 315 313
346 334 325 313 316 310 298 33 278 206 177 73 30 9 330 11 339 343 25 213 29 54 1 4 59 76 17 34 39 36 29 13 2 349 335 326 318 319 318 315 315 314 313 311
321 313 306 329 351 60 72 315 327 13 52 14 318 339 331 360 355 39 10 91 33 241 323 59 69 72 18 8 357 10 358 347 336 330 324 320 315 313 313 312 312 312 312 310
316 319 327 1 353 38 80 351 333 30 2 18 359 351 17 13 15 53 38 49 224 309 38 72 27 254 3 338 327 332 332 326 322 318 315 313 311 310 310 309 310 310 309 309
312 359 356 83 334 259 168 168 211 8 11 18 19 38 48 20 21 22 46 13 51 62 59 87 259 356 347 333 319 315 318 319 318 317 316 314 314 313 313 313 313 313 311 312
338 13 313 222 305 301 7 20 58 27 29 18 21 49 26 1 56 33 51 25 45 27 48 231 341 327 327 330 330 325 325 325 324 324 322 319 317 315 314 317 316 315 313 312
35 44 48 272 326 6 36 40 48 37 19 30 41 61 49 345 104 47 202 101 204 269 246 316 332 337 336 331 327 325 321 320 319 318 318 318 318 318 316 315 317 319 318 317
88 38 214 307 325 326 3 30 20 3 359 79 83 53 211 17 37 17 201 154 223 315 325 334 337 334 331 328 322 321 321 320 319 319 319 319 320 320 322 325 325 323 322 319
Height
1518 1514 1511 1507 1504 1500 1498 1497 1499 1497 1496 1498 1502 1509 1506 1506 1507 1506 1507 1507 1508 1507 1508 1510 1513 1510 1513 1513 1514 1514 1516 1524 1534 1523 1528 1528 1529 1530 1534 1551 1549 1566 1568 1536
1517 1515 1512 1508 1505 1502 1499 1497 1497 1498 1496 1506 1507 1506 1506 1506 1507 1508 1507 1507 1506 1504 1505 1506 1508 1510 1513 1512 1513 1514 1514 1523 1542 1521 1529 1528 1528 1528 1529 1536 1544 1556 1549 1522
1518 1515 1511 1508 1505 1503 1501 1500 1501 1497 1498 1499 1500 1502 1503 1505 1505 1506 1507 1507 1507 1507 1509 1509 1511 1511 1510 1510 1511 1512 1513 1523 1520 1522 1512 1521 1524 1523 1525 1527 1556 1541 1535 1512
1516 1514 1512 1509 1506 1502 1502 1501 1502 1502 1503 1500 1501 1502 1502 1502 1503 1506 1505 1505 1505 1505 1504 1506 1508 1511 1514 1514 1514 1515 1517 1523 1522 1517 1514 1516 1511 1510 1518 1525 1511 1514 1489 1511
1515 1512 1510 1509 1505 1502 1502 1501 1502 1502 1502 1501 1500 1501 1501 1501 1501 1502 1502 1503 1502 1504 1505 1503 1503 1506 1509 1507 1515 1516 1518 1516 1519 1512 1508 1511 1509 1506 1501 1502 1495 1495 1490 1492
1514 1512 1509 1507 1506 1504 1501 1502 1501 1500 1503 1502 1503 1500 1497 1498 1498 1499 1498 1500 1501 1502 1500 1499 1501 1501 1502 1504 1508 1515 1519 1520 1523 1523 1511 1507 1507 1488 1481 1485 1487 1486 1493 1488
1512 1509 1508 1507 1505 1504 1503 1501 1500 1500 1500 1500 1499 1497 1498 1498 1497 1497 1496 1498 1500 1498 1497 1499 1499 1498 1498 1500 1501 1503 1515 1519 1521 1524 1509 1517 1476 1473 1476 1480 1482 1482 1484 1487
1509 1506 1504 1503 1502 1502 1502 1501 1499 1498 1498 1496 1495 1494 1494 1494 1495 1495 1494 1494 1494 1495 1497 1502 1502 1502 1499 1493 1496 1500 1502 1510 1514 1519 1526 1493 1474 1473 1478 1477 1487 1485 1486 1488
1505 1504 1501 1499 1499 1498 1498 1499 1498 1497 1495 1492 1490 1491 1492 1494 1494 1494 1491 1491 1491 1494 1497 1502 1503 1501 1493 1493 1496 1499 1501 1502 1502 1516 1513 1501 1475 1473 1471 1471 1488 1486 1485 1487
1505 1502 1501 1497 1496 1496 1495 1494 1496 1496 1493 1488 1489 1489 1489 1489 1489 1490 1489 1489 1492 1493 1497 1501 1503 1499 1488 1490 1490 1501 1506 1506 1500 1496 1495 1484 1474 1473 1471 1479 1486 1485 1484 1486
1505 1502 1500 1498 1495 1494 1493 1492 1492 1493 1489 1487 1487 1486 1486 1485 1485 1487 1487 1490 1490 1493 1497 1496 1493 1495 1487 1483 1481 1488 1490 1497 1499 1496 1495 1483 1475 1474 1475 1482 1482 1483 1484 1484
1503 1501 1499 1496 1494 1492 1491 1491 1490 1489 1487 1485 1483 1482 1482 1483 1484 1486 1484 1482 1482 1484 1489 1490 1489 1487 1487 1484 1482 1480 1483 1474 1478 1479 1477 1476 1477 1477 1480 1480 1481 1482 1482 1482
1502 1500 1497 1495 1493 1490 1489 1488 1486 1486 1484 1480 1478 1476 1477 1476 1477 1480 1481 1480 1481 1481 1482 1484 1484 1484 1482 1481 1479 1473 1471 1470 1473 1474 1475 1475 1477 1477 1478 1480 1481 1482 1481 1480
1500 1498 1496 1494 1492 1489 1487 1486 1485 1485 1485 1481 1475 1472 1473 1472 1472 1472 1473 1476 1477 1478 1479 1479 1478 1478 1476 1477 1474 1474 1472 1471 1471 1471 1475 1477 1477 1477 1478 1480 1480 1482 1484 1483
1497 1495 1493 1491 1489 1487 1485 1483 1482 1482 1485 1481 1473 1469 1469 1468 1467 1469 1470 1471 1472 1473 1473 1474 1473 1473 1474 1472 1472 1472 1469 1468 1469 1466 1474 1474 1476 1477 1478 1481 1482 1483 1483 1484
1494 1492 1490 1489 1487 1485 1483 1482 1481 1480 1480 1481 1475 1470 1467 1466 1466 1466 1466 1468 1468 1468 1468 1469 1468 1469 1471 1469 1469 1467 1467 1469 1471 1472 1474 1475 1476 1477 1479 1481 1482 1481 1480 1480
1490 1488 1487 1485 1484 1483 1484 1483 1481 1479 1480 1480 1475 1469 1467 1465 1464 1465 1466 1467 1468 1470 1469 1468 1467 1466 1468 1466 1467 1470 1471 1471 1473 1474 1475 1477 1478 1480 1480 1479 1479 1478 1477 1475
1486 1484 1481 1480 1480 1479 1478 1477 1477 1477 1478 1478 1477 1471 1468 1466 1466 1466 1466 1466 1467 1468 1467 1466 1465 1465 1465 1465 1472 1472 1473 1473 1475 1476 1477 1478 1479 1479 1479 1478 1476 1474 1471 1469
1483 1480 1477 1475 1475 1476 1476 1476 1476 1476 1479 1476 1475 1473 1471 1468 1467 1467 1467 1467 1468 1468 1467 1468 1468 1467 1475 1475 1475 1475 1477 1478 1478 1477 1477 1477 1477 1477 1476 1475 1473 1471 1467 1464
1480 1477 1476 1475 1475 1475 1475 1473 1474 1473 1473 1474 1474 1472 1471 1472 1469 1468 1469 1468 1469 1471 1471 1469 1469 1478 1481 1479 1479 1479 1479 1479 1479 1477 1476 1476 1475 1474 1472 1470 1468 1466 1463 1459
1479 1478 1476 1476 1475 1473 1473 1473 1473 1471 1471 1473 1474 1473 1473 1472 1472 1471 1470 1473 1472 1477 1473 1472 1473 1481 1485 1484 1484 1483 1480 1480 1479 1478 1477 1475 1473 1471 1468 1465 1463 1461 1457 1454
1480 1479 1476 1475 1475 1474 1475 1478 1474 1473 1475 1476 1476 1475 1473 1473 1472 1472 1473 1475 1476 1480 1477 1478 1482 1487 1486 1485 1484 1481 1479 1478 1477 1475 1473 1471 1469 1466 1463 1460 1456 1453 1449 1445
1478 1478 1477 1476 1479 1482 1486 1485 1482 1480 1477 1477 1476 1475 1475 1475 1475 1476 1476 1486 1489 1480 1489 1489 1488 1485 1483 1483 1481 1480 1478 1477 1474 1471 1469 1466 1463 1460 1457 1452 1449 1445 1441 1437
1479 1478 1482 1484 1488 1481 1480 1480 1481 1481 1479 1477 1476 1476 1477 1479 1479 1479 1481 1485 1485 1490 1491 1487 1487 1484 1483 1482 1481 1478 1475 1472 1469 1466 1463 1460 1456 1452 1448 1445 1441 1437 1432 1428
1480 1480 1486 1486 1481 1481 1480 1479 1480 1480 1480 1478 1477 1479 1481 1482 1484 1485 1487 1493 1495 1486 1486 1488 1485 1483 1482 1480 1477 1473 1470 1466 1462 1459 1455 1451 1448 1444 1439 1437 1433 1430 1425 1422
1481 1481 1483 1482 1482 1481 1480 1481 1481 1481 1480 1479 1480 1483 1489 1493 1491 1492 1499 1504 1503 1492 1487 1485 1483 1480 1477 1474 1471 1468 1465 1461 1457 1453 1450 1446 1442 1437 1433 1429 1426 1423 1419 1415
1482 1483 1483 1483 1483 1483 1483 1483 1483 1482 1482 1483 1484 1490 1492 1490 1497 1498 1496 1495 1488 1485 1484 1482 1480 1477 1473 1470 1467 1464 1460 1456 1452 1448 1444 1440 1436 1432 1428 1423 1420 1417 1414 1410